Location: Unspecified
(0.0000°N, 0.0000°E)
Time: 14:29:31
(UTC+00:00)

deb Delta 126 - Pass Details

Date: 15 February 2026
Orbit: 1502 x 2092 km, 101.9° (Epoch: 4 March)

Event Time Altitude Azimuth Distance (km) Brightness Sun altitude
Rises 03:18:51 0° 24° (NNE) 4,691 ? -42.5°
Reaches altitude 10° 03:21:38 10° 28° (NNE) 3,750 ? -41.8°
Maximum altitude 03:30:19 62° 107° (ESE) 1,844 ? -39.8°
Drops below altitude 10° 03:39:57 10° 185° (S) 4,153 ? -37.4°
Sets 03:43:10 0° 188° (S) 5,224 ? -36.7°
